Location: Newark
(48.6461°N, 4.3644°W)
Time: 06:15:37
(UTC+00:00)

Transit 4A - Pass Details

Date: 27 January 2020
Orbit: 872 x 973 km, 66.8° (Epoch: 17 February)

Event Time Altitude Azimuth Distance (km) Brightness Sun altitude
Rises 11:46:34 0° 318° (NW) 3,487 10.4 22.1°
Reaches altitude 10° 11:50:19 10° 341° (NNW) 2,537 9.7 22.2°
Maximum altitude 11:53:33 15° 15° (NNE) 2,200 9.5 22.3°
Drops below altitude 10° 11:56:46 10° 49° (NE) 2,529 9.9 22.4°
Sets 12:00:29 0° 73° (ENE) 3,469 10.8 22.5°
